Location: Ackerson Creek
(37.8210°N, 119.8757°W)
Time: 15:41:10
(UTC+00:00)

Daily predictions for brighter satellites

Satellite Brightness Start Highest point End
(mag) Time Altitude Azimuth Time Altitude Azimuth Time Altitude Azimuth
YAOGAN 6 2.9 12:03:35 10° N 12:06:39 38° WNW 12:07:11 35° W
H-2A R/B 3.0 12:02:13 10° NNE 12:07:02 46° E 12:11:57 10° S
Cosmos 1805 3.2 12:04:19 10° NNW 12:07:55 51° W 12:10:49 15° SSW
Cosmos 1151 Rocket 4.3 12:09:51 22° W 12:10:16 22° WNW 12:13:38 10° NNW
NOSS 2-2 (E) 4.4 12:10:15 10° NW 12:15:15 55° WSW 12:22:19 10° SSE
Cosmos 1553 Rocket 3.9 12:09:56 10° NNW 12:16:10 68° W 12:22:16 10° S
Cosmos 1867 4.3 12:12:43 10° NW 12:17:22 29° WSW 12:21:57 10° SSW
DMSP B5D2-2 4.0 12:12:58 10° S 12:18:07 67° WSW 12:23:18 10° NNW
Iridium 51 3.8 12:16:00 10° S 12:19:25 69° W 12:22:45 10° N
Cosmos 1515 Rocket 3.6 12:17:07 10° S 12:21:32 85° E 12:26:00 10° N
Cosmos 921 Rocket 3.3 12:19:17 19° SW 12:22:01 45° WNW 12:26:10 10° N
Cosmos 1461 3.1 12:19:07 10° NW 12:22:41 38° WSW 12:26:13 10° S
USA 290 4.5 12:22:05 10° N 12:24:49 28° ENE 12:27:31 10° SE
NOSS 2-2 (D) 4.4 12:24:12 10° NW 12:29:08 57° WSW 12:36:07 10° SSE
Cosmos 1470 Rocket 3.5 12:25:18 10° N 12:29:42 80° W 12:34:07 10° S
Cosmos 2278 Rocket 3.1 12:27:41 10° NW 12:32:20 27° WSW 12:36:58 10° SSW
USA 308 2.5 12:32:13 15° SW 12:35:18 89° NW 12:39:15 10° NE
Cosmos 1939 Rocket 3.2 12:32:02 10° NNE 12:35:46 64° E 12:39:30 10° S
IRS-1D 4.4 12:31:40 10° N 12:36:03 30° WNW 12:40:23 11° SW
Chandra Rocket (1) 3.6 12:33:51 12° SW 12:36:36 28° SSE 12:43:25 10° ESE
Cosmos 1048 Rocket 4.0 12:39:26 10° SSW 12:44:46 81° WNW 12:50:06 10° NNE
ATLAS 2AS CENTAUR R/B 3.1 12:37:50 10° SW 12:45:08 54° NW 12:52:11 10° NNE
YAOGAN 11 4.2 12:40:57 10° SSE 12:45:25 90° WSW 12:49:58 10° NNW
Cosmos 1975 4.0 12:42:45 10° NW 12:45:41 21° W 12:48:36 10° SW
SL-16 R/B 2.5 12:41:09 10° SW 12:46:38 51° WNW 12:52:09 10° NNE
Cosmos 1766 3.1 12:43:09 10° NNW 12:46:47 57° W 12:50:22 10° S
COSMO-SKYMED 1 4.2 12:47:28 10° SE 12:51:32 41° ENE 12:55:37 10° N
ARGOS 4.0 12:46:31 10° NNE 12:51:48 55° E 12:57:01 10° S
Cosmos 1674 2.5 12:49:04 10° SSW 12:52:27 57° W 12:55:50 10° N
KORONAS-FOTON 3.6 12:50:12 10° SSW 12:53:51 72° W 12:57:30 10° N
Cosmos 1933 Rocket 3.5 12:52:43 10° N 12:57:05 79° W 13:01:24 10° S
ARIANE 5 R/B 3.0 12:52:16 10° NNE 12:57:29 67° ESE 13:02:38 10° S
Cosmos 1484 Rocket 3.4 12:57:01 10° N 13:00:15 31° WNW 13:03:26 10° SW
Cosmos 1656 Rocket 3.9 12:57:23 10° NNW 13:02:49 74° ENE 13:08:12 10° SSE
